• In Hungary
  • List of Countries
  • For 7 days
  • Water Temperature
  • Satellite Maps
  • Weather Map
  • News
  • Weather Widgets
  • user-avatar
    Login

    Hourly Weather Ostrozki

    Today, 17 July, Tuesday

    Time Temperature Precipitation Wind Pressure Humidity
    00:00 +18°C° 0.4 mm 2 mps 745 mmHg 94%
    01:00 +19°C° 0 mm 3 mps 745 mmHg 96%
    02:00 +19°C° 0.9 mm 3 mps 745 mmHg 96%
    03:00 +19°C° 0.9 mm 3 mps 744 mmHg 96%
    04:00 +19°C° 0.9 mm 3 mps 744 mmHg 96%
    05:00 +19°C° 0.4 mm 3 mps 744 mmHg 94%
    06:00 +20°C° 0.4 mm 4 mps 744 mmHg 93%
    07:00 +20°C° 0 mm 4 mps 744 mmHg 91%
    08:00 +21°C° 0.5 mm 4 mps 744 mmHg 89%
    09:00 +21°C° 0.5 mm 4 mps 744 mmHg 87%
    10:00 +22°C° 0.5 mm 4 mps 744 mmHg 84%
    11:00 +22°C° 0.8 mm 4 mps 744 mmHg 85%
    12:00 +22°C° 0.8 mm 4 mps 744 mmHg 86%
    13:00 +21°C° 0.8 mm 4 mps 744 mmHg 87%
    14:00 +21°C° 0.8 mm 4 mps 743 mmHg 89%
    15:00 +20°C° 0.8 mm 4 mps 743 mmHg 91%
    16:00 +20°C° 0.8 mm 5 mps 743 mmHg 93%
    17:00 +20°C° 0.8 mm 4 mps 743 mmHg 94%
    18:00 +20°C° 0.8 mm 4 mps 743 mmHg 94%
    19:00 +19°C° 0.8 mm 4 mps 743 mmHg 95%
    20:00 +19°C° 1.7 mm 5 mps 743 mmHg 95%
    21:00 +19°C° 1.7 mm 5 mps 743 mmHg 96%
    22:00 +19°C° 1.7 mm 5 mps 743 mmHg 96%
    23:00 +19°C° 1.2 mm 5 mps 743 mmHg 96%

    Tomorrow, 18 July, Wednesday

    Time Temperature Precipitation Wind Pressure Humidity
    00:00 +19°C° 1.2 mm 4 mps 743 mmHg 97%
    01:00 +19°C° 1.2 mm 4 mps 743 mmHg 97%
    02:00 +19°C° 0.5 mm 4 mps 743 mmHg 97%
    03:00 +19°C° 0.5 mm 3 mps 743 mmHg 97%
    04:00 +19°C° 0.5 mm 3 mps 743 mmHg 97%
    05:00 +20°C° 0.2 mm 3 mps 743 mmHg 95%
    06:00 +20°C° 0.2 mm 3 mps 743 mmHg 93%
    07:00 +21°C° 0.2 mm 3 mps 743 mmHg 91%
    08:00 +22°C° 0.4 mm 3 mps 743 mmHg 87%
    09:00 +24°C° 0.4 mm 3 mps 743 mmHg 82%
    10:00 +26°C° 0.4 mm 3 mps 744 mmHg 78%
    11:00 +26°C° 1.1 mm 4 mps 744 mmHg 78%
    12:00 +26°C° 1.1 mm 4 mps 744 mmHg 78%
    13:00 +26°C° 1.1 mm 4 mps 744 mmHg 78%
    14:00 +26°C° 0.6 mm 5 mps 744 mmHg 79%
    15:00 +25°C° 0.6 mm 5 mps 744 mmHg 81%
    16:00 +25°C° 0.6 mm 5 mps 744 mmHg 82%
    17:00 +23°C° 0.1 mm 5 mps 744 mmHg 84%
    18:00 +22°C° 0.1 mm 4 mps 745 mmHg 86%
    19:00 +21°C° 0.1 mm 4 mps 745 mmHg 89%
    20:00 +21°C° 0 mm 4 mps 745 mmHg 90%
    21:00 +20°C° 0 mm 4 mps 745 mmHg 91%
    22:00 +20°C° 0 mm 4 mps 745 mmHg 92%
    23:00 +19°C° 0 mm 4 mps 745 mmHg 92%

    Day after tomorrow, 19 July, Thursday

    Time Temperature Precipitation Wind Pressure Humidity
    00:00 +19°C° 0 mm 4 mps 745 mmHg 91%
    01:00 +19°C° 0 mm 3 mps 745 mmHg 91%
    02:00 +19°C° 0 mm 3 mps 745 mmHg 91%
    03:00 +19°C° 0 mm 3 mps 745 mmHg 90%
    04:00 +19°C° 0 mm 3 mps 745 mmHg 90%
    05:00 +20°C° 0 mm 3 mps 745 mmHg 87%
    06:00 +20°C° 0 mm 3 mps 746 mmHg 85%
    07:00 +21°C° 0 mm 3 mps 746 mmHg 83%
    08:00 +22°C° 0 mm 3 mps 746 mmHg 77%
    09:00 +25°C° 0 mm 3 mps 746 mmHg 71%
    10:00 +26°C° 0 mm 3 mps 746 mmHg 66%
    11:00 +27°C° 0.1 mm 4 mps 746 mmHg 63%
    12:00 +27°C° 0.1 mm 4 mps 746 mmHg 60%
    13:00 +28°C° 0.1 mm 4 mps 746 mmHg 57%
    14:00 +27°C° 0.1 mm 4 mps 747 mmHg 59%
    15:00 +27°C° 0.1 mm 4 mps 747 mmHg 61%
    16:00 +27°C° 0.1 mm 4 mps 747 mmHg 62%
    17:00 +25°C° 0 mm 4 mps 747 mmHg 68%
    18:00 +23°C° 0 mm 4 mps 747 mmHg 74%
    19:00 +22°C° 0 mm 4 mps 747 mmHg 79%
    20:00 +20°C° 0 mm 4 mps 747 mmHg 83%
    21:00 +19°C° 0 mm 3 mps 747 mmHg 87%
    22:00 +18°C° 0 mm 3 mps 747 mmHg 90%
    23:00 +18°C° 0 mm 3 mps 747 mmHg 90%

    20 July, Friday

    Time Temperature Precipitation Wind Pressure Humidity
    00:00 +18°C° 0 mm 3 mps 747 mmHg 90%
    01:00 +17°C° 0 mm 3 mps 747 mmHg 90%
    02:00 +17°C° 0 mm 3 mps 747 mmHg 90%
    03:00 +17°C° 0 mm 3 mps 747 mmHg 90%
    04:00 +17°C° 0 mm 3 mps 746 mmHg 91%
    05:00 +18°C° 0 mm 3 mps 746 mmHg 86%
    06:00 +20°C° 0 mm 3 mps 747 mmHg 82%
    07:00 +21°C° 0 mm 3 mps 747 mmHg 78%
    08:00 +22°C° 0 mm 3 mps 747 mmHg 72%
    09:00 +23°C° 0 mm 4 mps 747 mmHg 66%
    10:00 +26°C° 0 mm 4 mps 747 mmHg 60%
    11:00 +26°C° 0 mm 4 mps 747 mmHg 57%
    12:00 +27°C° 0 mm 4 mps 747 mmHg 55%
    13:00 +27°C° 0 mm 5 mps 746 mmHg 52%
    14:00 +27°C° 0 mm 5 mps 746 mmHg 54%
    15:00 +26°C° 0 mm 5 mps 746 mmHg 57%
    16:00 +26°C° 0 mm 5 mps 746 mmHg 59%
    17:00 +23°C° 0 mm 5 mps 746 mmHg 64%
    18:00 +22°C° 0 mm 4 mps 746 mmHg 69%
    19:00 +21°C° 0 mm 4 mps 746 mmHg 73%
    20:00 +20°C° 0 mm 4 mps 746 mmHg 76%
    21:00 +19°C° 0 mm 4 mps 746 mmHg 79%
    22:00 +18°C° 0 mm 4 mps 746 mmHg 82%
    23:00 +17°C° 0 mm 4 mps 746 mmHg 82%

    21 July, Saturday

    Time Temperature Precipitation Wind Pressure Humidity
    00:00 +17°C° 0 mm 4 mps 746 mmHg 81%
    01:00 +17°C° 0 mm 4 mps 746 mmHg 81%
    02:00 +17°C° 0 mm 4 mps 745 mmHg 82%
    03:00 +15°C° 0 mm 4 mps 745 mmHg 83%
    04:00 +16°C° 0 mm 3 mps 745 mmHg 84%
    05:00 +18°C° 0 mm 3 mps 745 mmHg 80%
    06:00 +19°C° 0 mm 4 mps 745 mmHg 76%
    07:00 +21°C° 0 mm 4 mps 745 mmHg 73%
    08:00 +22°C° 0 mm 4 mps 746 mmHg 68%
    09:00 +23°C° 0 mm 4 mps 746 mmHg 64%
    10:00 +26°C° 0 mm 4 mps 746 mmHg 60%
    11:00 +26°C° 0 mm 4 mps 746 mmHg 58%
    12:00 +26°C° 0 mm 4 mps 745 mmHg 57%
    13:00 +27°C° 0 mm 5 mps 745 mmHg 55%
    14:00 +26°C° 0 mm 5 mps 745 mmHg 56%
    15:00 +25°C° 0 mm 5 mps 745 mmHg 57%
    16:00 +25°C° 0 mm 5 mps 745 mmHg 58%
    17:00 +23°C° 0 mm 4 mps 745 mmHg 62%
    18:00 +21°C° 0 mm 4 mps 745 mmHg 67%
    19:00 +20°C° 0 mm 3 mps 745 mmHg 72%
    20:00 +19°C° 0 mm 3 mps 745 mmHg 76%
    21:00 +18°C° 0 mm 3 mps 745 mmHg 81%
    22:00 +16°C° 0 mm 3 mps 745 mmHg 85%
    23:00 +16°C° 0 mm 3 mps 745 mmHg 87%

    22 July, Sunday

    Time Temperature Precipitation Wind Pressure Humidity
    00:00 +16°C° 0 mm 3 mps 745 mmHg 88%
    01:00 +15°C° 0 mm 4 mps 745 mmHg 89%
    02:00 +16°C° 0 mm 3 mps 745 mmHg 89%
    03:00 +14°C° 0 mm 3 mps 745 mmHg 90%
    04:00 +14°C° 0 mm 3 mps 745 mmHg 90%
    05:00 +17°C° 0 mm 4 mps 745 mmHg 83%
    06:00 +18°C° 0 mm 4 mps 745 mmHg 76%
    07:00 +20°C° 0 mm 4 mps 745 mmHg 69%
    08:00 +21°C° 0 mm 4 mps 746 mmHg 64%
    09:00 +22°C° 0 mm 5 mps 746 mmHg 60%
    10:00 +23°C° 0 mm 5 mps 746 mmHg 55%
    11:00 +23°C° 0 mm 5 mps 746 mmHg 54%
    12:00 +25°C° 0 mm 5 mps 746 mmHg 53%
    13:00 +25°C° 0 mm 5 mps 746 mmHg 52%
    14:00 +25°C° 0.1 mm 5 mps 746 mmHg 54%
    15:00 +23°C° 0.1 mm 5 mps 746 mmHg 55%
    16:00 +23°C° 0.1 mm 5 mps 746 mmHg 57%
    17:00 +22°C° 0 mm 4 mps 746 mmHg 63%
    18:00 +21°C° 0 mm 4 mps 746 mmHg 69%
    19:00 +19°C° 0 mm 4 mps 746 mmHg 74%
    20:00 +18°C° 0 mm 4 mps 746 mmHg 79%
    21:00 +17°C° 0 mm 4 mps 746 mmHg 83%
    22:00 +15°C° 0 mm 4 mps 746 mmHg 88%
    23:00 +15°C° 0 mm 4 mps 746 mmHg 89%
    Show more